{"data":{"norad_id":65516,"intl_designator":"2025-198AA","name":"STARLINK-35216","alt_names":[],"object_type":"PAYLOAD","status":"ACTIVE","operator":null,"country":"US","launch_date":"2025-09-05","launch_site_code":"AFETR","launch_vehicle":null,"mission":null,"orbit_class":"UNKNOWN","rcs_meters":null,"size_class":null,"mass_kg":null,"dimensions":null,"purposes":["comms"],"wikipedia_slug":null,"has_3d_model":false,"image_url":null,"decayed_at":null,"tle_current":{"epoch":"2026-09-20T21:43:51.149568Z","epoch_age_seconds":76947,"freshness":"FRESH","line1":"1 65516U 25198AA  26263.90545312  .00015516  00000+0  46933-3 0  9991","line2":"2 65516  53.1592  81.7430 0000860  67.2245 292.8848 15.34403578 58546","mean_motion":15.34403578,"eccentricity":8.6e-5,"inclination_deg":53.1592,"raan_deg":81.743,"arg_perigee_deg":67.2245,"mean_anomaly_deg":292.8848,"bstar":0.00046933,"rev_number":5854,"period_min":93.847539242378,"perigee_km":462.10429431165,"apogee_km":463.28091700383,"semimajor_km":6840.8296056577,"source":"CELESTRAK","updated_at":"2026-09-21T09:00:35.646375Z"}}}